• In Romania
  • List of Countries
  • For 7 days
  • Water Temperature
  • Satellite Maps
  • Weather Map
  • Weather Widgets
  • user-avatar
    Login

    Hourly Weather Kamarang

    Today, 14 August, Tuesday

    Time Temperature Precipitation Wind Pressure Humidity
    00:00 +20°C° 0.6 mm 0 mps 713 mmHg 97%
    01:00 +20°C° 0.6 mm 0 mps 713 mmHg 97%
    02:00 +20°C° 0.6 mm 0 mps 712 mmHg 97%
    03:00 +20°C° 0.1 mm 0 mps 712 mmHg 98%
    04:00 +20°C° 0.1 mm 0 mps 712 mmHg 98%
    05:00 +19°C° 0.1 mm 0 mps 712 mmHg 98%
    06:00 +21°C° 0 mm 0 mps 713 mmHg 94%
    07:00 +22°C° 0 mm 0 mps 713 mmHg 89%
    08:00 +23°C° 0 mm 0 mps 714 mmHg 85%
    09:00 +28°C° 0 mm 1 mps 714 mmHg 72%
    10:00 +30°C° 0 mm 1 mps 714 mmHg 59%
    11:00 +33°C° 0 mm 1 mps 714 mmHg 46%
    12:00 +33°C° 0.1 mm 1 mps 714 mmHg 45%
    13:00 +34°C° 0.1 mm 1 mps 713 mmHg 44%
    14:00 +34°C° 0.1 mm 1 mps 712 mmHg 43%
    15:00 +33°C° 0.2 mm 1 mps 712 mmHg 48%
    16:00 +32°C° 0.2 mm 1 mps 712 mmHg 53%
    17:00 +31°C° 0.2 mm 1 mps 711 mmHg 58%
    18:00 +28°C° 1.8 mm 1 mps 712 mmHg 70%
    19:00 +26°C° 1.8 mm 1 mps 712 mmHg 81%
    20:00 +24°C° 1.8 mm 1 mps 712 mmHg 93%
    21:00 +23°C° 0.7 mm 1 mps 713 mmHg 94%
    22:00 +21°C° 0.7 mm 0 mps 713 mmHg 95%
    23:00 +21°C° 0.7 mm 0 mps 714 mmHg 96%

    Tomorrow, 15 August, Wednesday

    Time Temperature Precipitation Wind Pressure Humidity
    00:00 +21°C° 0.6 mm 0 mps 713 mmHg 96%
    01:00 +20°C° 0.6 mm 0 mps 713 mmHg 97%
    02:00 +20°C° 0.6 mm 0 mps 713 mmHg 97%
    03:00 +20°C° 0.2 mm 0 mps 713 mmHg 97%
    04:00 +20°C° 0.2 mm 0 mps 713 mmHg 97%
    05:00 +20°C° 0.2 mm 0 mps 713 mmHg 97%
    06:00 +21°C° 0.1 mm 0 mps 713 mmHg 93%
    07:00 +22°C° 0.1 mm 0 mps 714 mmHg 89%
    08:00 +23°C° 0.1 mm 0 mps 714 mmHg 84%
    09:00 +26°C° 0 mm 0 mps 715 mmHg 72%
    10:00 +30°C° 0 mm 1 mps 715 mmHg 59%
    11:00 +33°C° 0 mm 1 mps 715 mmHg 46%
    12:00 +33°C° 0.2 mm 1 mps 714 mmHg 47%
    13:00 +33°C° 0.2 mm 1 mps 714 mmHg 48%
    14:00 +34°C° 0.2 mm 2 mps 713 mmHg 48%
    15:00 +32°C° 0.5 mm 2 mps 712 mmHg 55%
    16:00 +31°C° 0.5 mm 1 mps 712 mmHg 62%
    17:00 +29°C° 0.5 mm 1 mps 712 mmHg 69%
    18:00 +27°C° 2 mm 1 mps 712 mmHg 78%
    19:00 +26°C° 2 mm 1 mps 713 mmHg 86%
    20:00 +24°C° 2 mm 1 mps 713 mmHg 95%
    21:00 +23°C° 1.1 mm 1 mps 714 mmHg 96%
    22:00 +21°C° 1.1 mm 0 mps 714 mmHg 96%
    23:00 +21°C° 1.1 mm 0 mps 715 mmHg 97%

    Day after tomorrow, 16 August, Thursday

    Time Temperature Precipitation Wind Pressure Humidity
    00:00 +21°C° 0.8 mm 0 mps 715 mmHg 97%
    01:00 +20°C° 0.8 mm 0 mps 714 mmHg 97%
    02:00 +20°C° 0.8 mm 0 mps 714 mmHg 98%
    03:00 +20°C° 0.6 mm 0 mps 714 mmHg 97%
    04:00 +20°C° 0.6 mm 0 mps 714 mmHg 97%
    05:00 +20°C° 0.6 mm 0 mps 714 mmHg 97%
    06:00 +21°C° 0.1 mm 0 mps 714 mmHg 93%
    07:00 +22°C° 0.1 mm 0 mps 715 mmHg 89%
    08:00 +23°C° 0.1 mm 0 mps 716 mmHg 85%
    09:00 +26°C° 0.1 mm 0 mps 716 mmHg 72%
    10:00 +30°C° 0.1 mm 1 mps 716 mmHg 59%
    11:00 +33°C° 0.1 mm 1 mps 716 mmHg 46%
    12:00 +33°C° 0.1 mm 1 mps 716 mmHg 45%
    13:00 +34°C° 0.1 mm 1 mps 715 mmHg 43%
    14:00 +35°C° 0.1 mm 2 mps 714 mmHg 41%
    15:00 +34°C° 0.1 mm 2 mps 714 mmHg 49%
    16:00 +31°C° 0.1 mm 2 mps 713 mmHg 57%
    17:00 +30°C° 0.1 mm 2 mps 713 mmHg 64%
    18:00 +28°C° 1.3 mm 1 mps 714 mmHg 75%
    19:00 +26°C° 1.3 mm 1 mps 714 mmHg 85%
    20:00 +24°C° 1.3 mm 1 mps 715 mmHg 95%
    21:00 +24°C° 0.7 mm 1 mps 715 mmHg 96%
    22:00 +21°C° 0.7 mm 0 mps 715 mmHg 97%
    23:00 +21°C° 0.7 mm 0 mps 716 mmHg 98%

    17 August, Friday

    Time Temperature Precipitation Wind Pressure Humidity
    00:00 +21°C° 0.3 mm 0 mps 715 mmHg 98%
    01:00 +21°C° 0.3 mm 0 mps 715 mmHg 98%
    02:00 +21°C° 0.3 mm 0 mps 714 mmHg 98%
    03:00 +20°C° 0 mm 0 mps 714 mmHg 98%
    04:00 +20°C° 0 mm 0 mps 714 mmHg 98%
    05:00 +20°C° 0 mm 0 mps 714 mmHg 98%
    06:00 +21°C° 0 mm 0 mps 715 mmHg 93%
    07:00 +22°C° 0 mm 0 mps 715 mmHg 89%
    08:00 +24°C° 0 mm 0 mps 716 mmHg 84%
    09:00 +28°C° 0.2 mm 1 mps 716 mmHg 72%
    10:00 +30°C° 0.2 mm 1 mps 716 mmHg 60%
    11:00 +32°C° 0.2 mm 1 mps 716 mmHg 48%
    12:00 +33°C° 0.1 mm 1 mps 715 mmHg 47%
    13:00 +33°C° 0.1 mm 1 mps 714 mmHg 46%
    14:00 +35°C° 0.1 mm 2 mps 714 mmHg 45%
    15:00 +33°C° 0.2 mm 1 mps 713 mmHg 49%
    16:00 +32°C° 0.2 mm 1 mps 713 mmHg 54%
    17:00 +31°C° 0.2 mm 1 mps 713 mmHg 59%
    18:00 +28°C° 1.7 mm 1 mps 713 mmHg 70%
    19:00 +26°C° 1.7 mm 1 mps 714 mmHg 81%
    20:00 +24°C° 1.7 mm 1 mps 714 mmHg 92%
    21:00 +23°C° 1.1 mm 1 mps 714 mmHg 93%
    22:00 +21°C° 1.1 mm 0 mps 714 mmHg 94%
    23:00 +21°C° 1.1 mm 0 mps 715 mmHg 95%

    18 August, Saturday

    Time Temperature Precipitation Wind Pressure Humidity
    00:00 +21°C° 0.5 mm 0 mps 714 mmHg 95%
    01:00 +20°C° 0.5 mm 0 mps 714 mmHg 96%
    02:00 +20°C° 0.5 mm 0 mps 713 mmHg 96%
    03:00 +20°C° 0.1 mm 0 mps 713 mmHg 96%
    04:00 +20°C° 0.1 mm 0 mps 714 mmHg 96%
    05:00 +20°C° 0.1 mm 0 mps 714 mmHg 96%
    06:00 +21°C° 0.1 mm 0 mps 714 mmHg 92%
    07:00 +22°C° 0.1 mm 0 mps 715 mmHg 88%
    08:00 +23°C° 0.1 mm 0 mps 715 mmHg 84%
    09:00 +27°C° 0.2 mm 1 mps 715 mmHg 74%
    10:00 +29°C° 0.2 mm 1 mps 715 mmHg 64%
    11:00 +32°C° 0.2 mm 1 mps 715 mmHg 54%
    12:00 +31°C° 0.6 mm 1 mps 714 mmHg 57%
    13:00 +31°C° 0.6 mm 2 mps 713 mmHg 60%
    14:00 +31°C° 0.6 mm 2 mps 712 mmHg 62%
    15:00 +30°C° 1.6 mm 2 mps 712 mmHg 71%
    16:00 +28°C° 1.6 mm 1 mps 712 mmHg 80%
    17:00 +27°C° 1.6 mm 1 mps 712 mmHg 89%
    18:00 +26°C° 1.5 mm 1 mps 712 mmHg 91%
    19:00 +25°C° 1.5 mm 1 mps 713 mmHg 93%
    20:00 +24°C° 1.5 mm 1 mps 713 mmHg 95%
    21:00 +23°C° 1.2 mm 1 mps 714 mmHg 96%
    22:00 +23°C° 1.2 mm 1 mps 714 mmHg 96%
    23:00 +21°C° 1.2 mm 0 mps 714 mmHg 96%

    19 August, Sunday

    Time Temperature Precipitation Wind Pressure Humidity
    00:00 +20°C° 0.5 mm 0 mps 714 mmHg 97%
    01:00 +20°C° 0.5 mm 0 mps 713 mmHg 97%
    02:00 +20°C° 0.5 mm 0 mps 713 mmHg 97%
    03:00 +20°C° 0.1 mm 0 mps 713 mmHg 97%
    04:00 +20°C° 0.1 mm 0 mps 713 mmHg 98%
    05:00 +20°C° 0.1 mm 0 mps 713 mmHg 98%
    06:00 +21°C° 0.1 mm 0 mps 714 mmHg 94%
    07:00 +22°C° 0.1 mm 0 mps 715 mmHg 91%
    08:00 +25°C° 0.1 mm 1 mps 715 mmHg 87%
    09:00 +26°C° 0.4 mm 1 mps 715 mmHg 81%
    10:00 +28°C° 0.4 mm 1 mps 715 mmHg 75%
    11:00 +30°C° 0.4 mm 1 mps 715 mmHg 69%
    12:00 +30°C° 1.1 mm 1 mps 714 mmHg 70%
    13:00 +30°C° 1.1 mm 1 mps 713 mmHg 70%
    14:00 +31°C° 1.1 mm 1 mps 713 mmHg 70%
    15:00 +30°C° 0.6 mm 1 mps 712 mmHg 71%
    16:00 +30°C° 0.6 mm 1 mps 712 mmHg 71%
    17:00 +29°C° 0.6 mm 1 mps 712 mmHg 71%
    18:00 +27°C° 0.3 mm 1 mps 713 mmHg 77%
    19:00 +26°C° 0.3 mm 1 mps 713 mmHg 83%
    20:00 +24°C° 0.3 mm 1 mps 714 mmHg 89%
    21:00 +23°C° 0 mm 1 mps 714 mmHg 91%
    22:00 +23°C° 0 mm 1 mps 714 mmHg 93%
    23:00 +23°C° 0 mm 1 mps 715 mmHg 95%
    Show more